Location: Central Coast NSW, Australia
(33.2407°S, 151.4316°E)
Time: 18:47:20
(UTC+11:00)

OTV 5 (USA 277) - Visible Passes

Search period start: 20 November 2018 00:00
Search period end: 30 November 2018 00:00
Orbit: 339 x 348 km, 54.5° (Epoch: 14 November)

Date Brightness Start Highest point End Pass type
(mag) Time Alt. Az. Time Alt. Az. Time Alt. Az.
20 Nov ? 05:06:31 10° SW 05:09:28 76° NW 05:12:24 10° NE visible
20 Nov ? 21:30:27 10° W 21:32:21 16° SW 21:34:16 10° S visible
21 Nov ? 03:55:37 10° SSW 03:58:05 23° SE 04:00:33 10° E visible
21 Nov ? 20:17:59 10° NW 20:20:52 58° SW 20:23:47 10° SE visible
22 Nov ? 04:18:43 10° SW 04:21:42 82° NW 04:24:38 10° NE visible
22 Nov ? 20:42:34 10° W 20:44:33 16° SW 20:46:32 10° S visible
23 Nov?03:13:51ENE03:13:51ENE03:06:42SSWvisible
23 Nov ? 04:45:58 15° NNW 04:45:58 15° NNW 04:47:06 10° N visible
